Weather History for Shelton, WA

Change the Weather History Date:

Tuesday, October 22, 2013

  Actual Average Record
Temperature  
Mean Temperature 51 °F -  
Max Temperature 61 °F 58 °F 73 °F (1969)
Min Temperature 39 °F 41 °F 30 °F (1949)
Degree Days  
Heating Degree Days 14    
Growing Degree Days 1 (Base 50)    
Moisture  
Dew Point 44 °F    
Average Humidity 92    
Maximum Humidity 100    
Minimum Humidity 64    
Precipitation  
Precipitation 0.00 in - - ()
Sea Level Pressure  
Sea Level Pressure 30.06 in    
Wind  
Wind Speed 3 mph (NE)    
Max Wind Speed 7 mph    
Max Gust Speed -    
Visibility 4 miles    
Events Fog    
Averages and records for this station are not official NWS values.
T = Trace of Precipitation, MM = Missing Value Source: NWS Daily Summary

Daily Weather History Graph

Daily Weather History Graph

Search for Another Location

Airport:

Trip Planner

Search our weather history database for the weather conditions in past years. The results will help you decide how hot, cold, wet, or windy it might be!

Date:

Astronomy

Oct. 22, 2013 Rise Set
Actual Time 7:41 AM PDT 6:11 PM PDT
Civil Twilight 7:10 AM PDT 6:42 PM PDT
Nautical Twilight 6:34 AM PDT 7:18 PM PDT
Astronomical Twilight 5:59 AM PDT 7:53 PM PDT
Moon 8:46 PM PDT (10/22) 11:25 AM PDT (10/22)
Length of Visible Light 11h 32m
Length of Day
10h 30m
Waning Gibbous, 86% of the Moon is Illuminated
Oct 22
Waning Gibbous
Oct 26
Last Quarter
Nov 3
New
Nov 9
First Quarter
Nov 17
Full

Hourly Weather History & Observations

Time (PDT) Temp. Windchill Dew Point Humidity Pressure Visibility Wind Dir Wind Speed Gust Speed Precip Events Conditions
12:53 AM 46.9 °F - 46.0 °F 97% 30.10 in 0.5 mi Calm Calm - N/A Fog Fog
1:53 AM 46.0 °F 43.9 °F 45.0 °F 96% 30.11 in 0.5 mi East 4.6 mph - N/A Fog Fog
2:53 AM 46.0 °F 43.1 °F 45.0 °F 96% 30.11 in 0.5 mi ENE 5.8 mph - N/A Fog Fog
3:08 AM 46.4 °F 43.5 °F 44.6 °F 93% 30.10 in 1.2 mi East 5.8 mph - N/A   Overcast
3:21 AM 46.4 °F 45.2 °F 44.6 °F 93% 30.10 in 2.0 mi NE 3.5 mph - N/A   Overcast
3:31 AM 46.4 °F 45.2 °F 44.6 °F 93% 30.10 in 1.0 mi NE 3.5 mph - N/A   Overcast
3:42 AM 46.4 °F 43.5 °F 44.6 °F 93% 30.10 in 0.8 mi NE 5.8 mph - N/A   Mist
3:53 AM 46.0 °F 43.9 °F 45.0 °F 96% 30.10 in 0.8 mi NE 4.6 mph - N/A   Mist
4:53 AM 45.0 °F 42.6 °F 44.1 °F 97% 30.10 in 0.5 mi NNE 4.6 mph - N/A Fog Fog
5:53 AM 45.0 °F 42.6 °F 45.0 °F 100% 30.11 in 0.8 mi NE 4.6 mph - N/A   Mist
6:53 AM 45.0 °F 42.6 °F 44.1 °F 97% 30.10 in 0.8 mi NNE 4.6 mph - N/A   Mist
7:12 AM 44.6 °F 42.2 °F 44.6 °F 100% 30.09 in 1.0 mi NNE 4.6 mph - N/A   Overcast
7:39 AM 44.6 °F 43.1 °F 44.6 °F 100% 30.09 in 0.8 mi NNE 3.5 mph - N/A   Mist
7:53 AM 45.0 °F 42.6 °F 44.1 °F 97% 30.10 in 0.8 mi NNE 4.6 mph - N/A   Mist
8:53 AM 46.0 °F 43.9 °F 45.0 °F 96% 30.11 in 0.2 mi NNE 4.6 mph - N/A Fog Fog
9:53 AM 46.0 °F 44.8 °F 46.0 °F 100% 30.11 in 0.2 mi NNE 3.5 mph - N/A Fog Fog
10:41 AM 46.4 °F 44.3 °F 46.4 °F 100% 30.09 in 1.0 mi NE 4.6 mph - N/A   Overcast
10:53 AM 46.9 °F - 46.0 °F 97% 30.11 in 1.0 mi Variable 3.5 mph - N/A   Overcast
11:10 AM 46.4 °F 45.2 °F 46.4 °F 100% 30.09 in 3.0 mi ENE 3.5 mph - N/A   Overcast
11:53 AM 48.0 °F - 46.0 °F 93% 30.09 in 8.0 mi NNE 3.5 mph - N/A   Overcast
12:50 PM 50.0 °F - 46.4 °F 87% 30.07 in 10.0 mi East 3.5 mph - N/A   Overcast
12:53 PM 50.0 °F - 46.0 °F 86% 30.08 in 10.0 mi East 4.6 mph - N/A   Overcast
1:22 PM 53.6 °F - 46.4 °F 77% 30.06 in 10.0 mi Variable 4.6 mph - N/A   Scattered Clouds
1:53 PM 57.0 °F - 48.0 °F 72% 30.06 in 10.0 mi Variable 3.5 mph - N/A   Clear
2:53 PM 60.1 °F - 48.0 °F 64% 30.04 in 10.0 mi ENE 5.8 mph - N/A   Clear
3:53 PM 61.0 °F - 50.0 °F 67% 30.04 in 10.0 mi North 4.6 mph - N/A   Clear
4:53 PM 59.0 °F - 48.9 °F 69% 30.03 in 10.0 mi North 6.9 mph - N/A   Clear
5:53 PM 55.9 °F - 48.9 °F 77% 30.02 in 10.0 mi Calm Calm - N/A   Clear
6:53 PM 50.0 °F - 46.9 °F 89% 30.03 in 10.0 mi Calm Calm - N/A   Clear
7:53 PM 48.0 °F - 46.0 °F 93% 30.04 in 8.0 mi Calm Calm - N/A   Clear
8:53 PM 46.0 °F - 44.1 °F 93% 30.03 in 6.0 mi Calm Calm - N/A   Clear
9:33 PM 42.8 °F - 42.8 °F 100% 30.02 in 4.0 mi Calm Calm - N/A   Partly Cloudy
9:39 PM 42.8 °F - 42.8 °F 100% 30.02 in 2.5 mi Calm Calm - N/A   Mostly Cloudy
9:46 PM 44.6 °F - 42.8 °F 93% 30.02 in 7.0 mi Calm Calm - N/A   Mostly Cloudy
9:53 PM 43.0 °F - 41.0 °F 93% 30.04 in 1.2 mi Calm Calm - N/A   Overcast
10:00 PM 42.8 °F - 41.0 °F 93% 30.02 in 0.2 mi Calm Calm - N/A Fog Fog
10:23 PM 42.8 °F - 41.0 °F 93% 30.02 in 2.0 mi Calm Calm - N/A   Overcast
10:32 PM 42.8 °F - 41.0 °F 93% 30.02 in 10.0 mi Calm Calm - N/A   Overcast
10:51 PM 41.0 °F - 39.2 °F 93% 30.02 in 1.8 mi Calm Calm - N/A   Overcast
10:53 PM 41.0 °F - 39.9 °F 96% 30.04 in 1.2 mi Calm Calm - N/A   Overcast
11:01 PM 41.0 °F - 39.2 °F 93% 30.02 in 0.2 mi Calm Calm - N/A Fog Fog
11:11 PM 41.0 °F - 39.2 °F 93% 30.02 in 2.0 mi Calm Calm - N/A   Overcast
11:25 PM 41.0 °F - 39.2 °F 93% 30.02 in 0.8 mi Calm Calm - N/A   Overcast
11:53 PM 39.9 °F - 39.0 °F 97% 30.04 in 0.5 mi Calm Calm - N/A Fog Fog